Wind_Speed
31 30 29 27 26 25 24 25 25 24 24 24 25 25 25 25 25 27 29 29 29 28 28 27 28 28 28 26 25 25 25 23 22 21 21 20 18 18 17 15 12 12
34 31 30 28 27 25 25 25 25 25 25 24 25 25 25 25 25 26 28 29 30 29 28 28 29 29 28 27 26 26 25 24 23 22 21 20 19 18 18 16 15 15
34 31 30 29 27 26 25 25 25 25 25 25 25 25 25 25 25 26 27 29 30 30 30 29 29 29 29 28 27 27 26 25 24 23 21 21 20 19 19 18 18 17
32 31 31 30 27 25 25 25 25 24 24 25 26 26 26 26 26 26 27 29 30 31 31 31 31 30 29 29 28 28 27 26 25 24 23 22 22 21 20 20 19 18
30 31 31 30 27 25 25 25 26 25 25 25 25 26 27 28 27 27 27 28 30 31 32 32 32 32 31 30 29 28 27 26 26 26 24 23 23 23 22 21 21 20
31 31 31 30 28 26 25 26 26 25 25 24 25 26 27 28 28 28 28 28 29 30 31 32 33 33 32 31 30 28 27 27 27 27 26 24 23 23 23 22 21 21
28 28 28 29 28 26 25 25 25 25 25 24 24 25 27 28 29 29 29 29 29 30 30 31 33 33 33 32 31 30 28 28 28 28 28 26 24 23 23 23 22 21
25 25 25 27 27 25 24 24 24 25 25 26 26 26 27 28 29 29 30 30 30 30 31 31 32 33 33 33 32 31 30 29 29 29 29 28 27 26 24 23 23 22
24 25 25 26 26 25 23 22 22 24 25 26 27 28 29 29 29 30 30 30 31 31 32 32 31 32 32 33 32 32 32 31 31 31 29 28 28 28 26 25 24 24
21 22 23 25 25 23 22 21 22 23 24 26 27 28 30 30 30 30 31 31 32 32 33 33 32 32 31 32 32 32 33 33 33 32 31 29 29 28 28 27 25 25
19 19 21 23 23 22 21 22 22 23 23 25 26 27 29 30 31 31 31 32 33 34 34 34 33 32 31 31 31 32 32 33 33 33 32 31 30 30 30 29 27 26
16 18 19 21 21 22 22 23 23 23 23 24 24 25 27 29 30 30 30 30 31 33 34 33 33 33 32 31 31 31 31 31 32 32 33 33 32 32 31 31 30 29
14 17 19 20 21 21 22 23 24 24 24 24 24 25 26 28 29 30 29 29 30 31 32 32 33 33 33 32 31 31 32 31 31 31 31 32 33 32 31 31 31 31
12 13 14 16 19 21 22 22 23 24 24 24 24 25 26 27 28 28 29 28 29 30 30 30 32 32 32 32 32 32 32 32 31 30 30 31 31 31 30 29 29 29
9 9 10 12 16 20 21 21 22 22 23 25 24 24 25 26 26 27 28 29 29 29 29 30 31 32 32 32 32 32 31 31 30 30 30 30 31 31 30 28 26 27
7 7 7 9 12 16 18 19 20 21 22 23 24 24 25 25 25 27 27 28 28 28 29 30 30 31 32 32 32 31 31 30 30 29 29 29 30 31 30 28 26 26
5 6 6 7 9 12 14 15 17 19 21 22 23 23 24 23 23 25 25 25 26 27 28 29 30 30 31 32 32 31 31 31 30 30 29 29 30 30 31 30 28 27
4 5 6 6 7 9 12 14 16 17 18 20 20 20 21 21 21 23 24 24 25 25 26 26 27 28 30 30 31 30 30 31 31 30 29 29 29 30 31 31 30 29
4 4 4 5 7 9 11 13 15 16 16 17 17 18 20 20 21 22 23 24 24 24 24 23 24 26 27 28 29 29 30 31 31 30 29 28 29 29 29 30 30 29
4 3 3 5 7 8 9 10 13 14 14 15 16 18 20 21 21 21 22 23 23 23 23 23 24 25 26 27 28 29 29 30 30 29 29 29 28 28 29 29 29 29
5 4 4 6 8 8 8 9 11 12 13 15 16 18 19 20 20 20 21 22 22 22 22 22 23 25 26 26 27 28 30 30 30 30 30 30 29 29 29 29 29 30
7 7 7 8 8 8 8 8 9 10 12 15 16 17 18 18 18 19 20 21 21 22 22 22 22 24 25 25 27 29 31 31 31 31 31 31 31 30 30 30 30 30
8 8 7 8 8 8 8 9 10 10 12 13 14 15 15 16 16 17 18 18 20 21 20 20 21 22 23 24 27 29 30 30 31 32 33 33 32 31 31 31 30 30
9 9 9 8 8 9 10 10 11 12 13 14 14 15 15 15 16 17 17 17 18 19 18 18 19 21 22 24 26 27 27 28 29 31 32 33 32 32 32 32 32 31
7 9 10 10 10 11 11 11 12 12 13 14 15 15 16 17 17 17 17 18 18 19 19 19 19 20 22 24 24 24 23 24 26 28 29 30 30 30 31 32 32 32
5 7 9 10 12 12 13 13 13 13 13 14 15 15 16 17 17 17 18 18 18 19 20 20 20 21 23 23 23 22 22 23 24 25 26 26 27 28 30 31 32 32
Wind_Direction
220 216 214 211 208 209 211 213 216 216 214 215 214 211 211 209 208 211 213 212 210 208 207 206 207 209 209 207 206 205 202 202 206 211 210 210 210 206 207 211 215 216
219 216 211 209 207 206 209 212 216 218 216 215 216 213 212 211 210 210 213 215 213 211 209 208 209 211 212 210 208 206 205 205 209 215 214 214 216 214 215 217 221 225
213 214 209 207 206 205 207 211 214 216 216 215 217 215 212 212 212 211 212 216 216 214 212 210 211 213 214 213 211 209 208 207 210 216 218 218 220 221 222 224 226 230
210 213 210 204 205 205 206 210 213 214 215 214 216 217 216 214 214 213 212 215 218 217 214 213 213 215 215 215 214 213 211 211 212 216 219 221 223 226 226 229 233 236
207 211 211 204 202 205 205 209 211 212 214 214 214 216 217 217 216 215 214 215 218 220 218 216 216 217 218 217 217 216 213 214 216 219 221 222 226 229 230 232 236 240
206 208 209 203 201 204 207 208 210 211 213 215 214 215 217 218 217 216 216 216 219 222 222 220 219 219 220 220 219 218 216 215 219 223 224 225 227 229 231 233 236 241
210 209 209 205 201 203 208 211 212 213 213 214 215 215 217 219 217 216 217 217 218 221 224 224 221 221 222 222 221 221 219 217 220 224 225 226 229 231 231 234 237 241
211 209 210 211 207 203 208 214 215 216 216 215 214 215 217 219 219 218 218 218 217 218 222 225 224 223 223 224 223 223 223 221 222 225 226 226 229 232 233 235 238 241
208 205 206 213 212 206 209 216 219 220 218 216 215 215 217 218 218 219 220 221 220 218 219 223 226 225 224 225 225 225 225 226 227 228 228 228 230 234 236 236 238 239
205 202 204 212 213 211 213 219 223 224 222 219 218 218 219 220 220 220 221 223 224 222 220 221 225 226 225 225 225 226 227 228 230 232 232 231 232 235 238 238 238 238
198 201 207 210 213 216 218 221 224 226 226 223 222 222 222 222 221 221 223 224 225 226 224 222 223 226 227 226 226 227 228 229 230 233 234 234 235 237 239 241 241 239
191 200 206 209 214 219 222 223 223 225 225 223 223 224 223 223 222 221 222 223 224 225 226 224 223 224 227 228 228 228 229 230 230 232 234 236 237 238 240 243 243 242
195 203 207 210 216 221 224 225 224 224 225 224 223 224 223 223 223 222 221 220 220 222 225 224 223 224 225 227 229 230 230 230 230 231 234 236 237 239 241 243 243 243
211 217 221 221 222 224 224 226 227 228 227 227 227 227 225 223 223 223 222 220 221 222 224 224 224 224 224 225 227 229 230 229 229 230 233 236 238 240 241 241 241 242
223 232 239 236 231 229 228 227 228 229 229 230 231 228 223 221 221 222 222 223 224 224 224 225 223 222 223 224 225 227 229 229 229 229 231 235 239 241 241 241 240 240
219 224 233 234 229 228 228 228 227 227 228 231 232 227 220 218 220 222 224 225 225 224 223 225 224 223 223 225 225 225 227 229 230 230 231 233 237 241 242 241 239 238
218 219 223 226 224 223 224 226 227 227 227 230 230 224 217 217 220 223 224 224 224 224 224 225 225 223 223 225 225 225 227 230 233 234 234 234 236 239 241 241 239 238
219 220 218 217 216 215 216 218 220 221 222 224 223 217 213 216 221 222 222 221 222 224 224 224 222 221 222 224 225 227 229 232 235 237 237 236 236 238 240 242 241 241
208 222 225 213 206 208 211 213 211 209 211 214 214 213 212 215 218 219 218 218 220 223 225 224 221 218 220 224 226 228 229 232 235 237 238 236 236 237 240 242 243 244
211 219 218 208 206 204 203 206 205 202 203 207 210 213 213 213 215 214 214 216 220 224 227 225 221 219 219 223 227 229 230 232 234 235 236 237 236 236 238 240 242 243
225 214 191 194 200 198 197 202 202 200 201 203 208 213 214 215 217 214 212 214 218 221 222 220 218 219 221 224 228 230 231 232 233 234 235 236 236 236 237 238 239 240
227 212 193 191 192 188 191 199 203 203 202 199 200 204 208 211 212 211 210 212 214 216 216 215 215 219 221 224 228 231 231 231 232 232 234 235 236 236 236 237 238 239
230 218 206 200 194 190 192 199 203 202 200 198 197 197 202 206 208 209 210 213 216 218 218 216 216 219 223 226 229 230 231 231 230 231 232 234 236 236 237 238 239 241
232 226 221 213 205 204 204 204 205 205 201 200 200 199 202 205 204 205 208 212 216 220 221 220 220 222 226 228 230 230 231 231 232 232 234 236 237 238 238 240 241 243
229 226 225 222 219 221 221 215 211 210 206 203 203 204 204 203 201 202 205 209 213 216 220 222 222 224 228 229 229 229 231 232 234 235 237 239 241 241 241 242 243 245
227 222 221 223 222 224 229 227 220 214 210 208 208 210 209 207 204 203 206 210 213 216 220 221 221 223 226 228 229 229 230 233 234 236 238 239 240 241 241 242 244 247
Height
3164 3168 3170 3172 3175 3177 3179 3181 3183 3185 3186 3188 3189 3192 3193 3195 3197 3199 3200 3202 3205 3207 3209 3211 3213 3214 3216 3218 3220 3222 3224 3225 3227 3228 3230 3231 3232 3233 3234 3235 3236 3237
3161 3164 3168 3170 3172 3175 3177 3179 3181 3183 3185 3186 3188 3190 3192 3194 3196 3197 3199 3201 3203 3205 3207 3209 3211 3212 3214 3217 3219 3221 3223 3224 3226 3227 3229 3230 3231 3232 3233 3234 3235 3236
3158 3162 3165 3168 3170 3173 3175 3177 3179 3181 3183 3185 3186 3188 3190 3192 3193 3195 3197 3199 3201 3203 3205 3207 3209 3211 3213 3215 3217 3219 3221 3223 3225 3226 3228 3229 3230 3231 3232 3233 3234 3235
3157 3160 3162 3165 3168 3170 3173 3175 3177 3179 3181 3183 3184 3186 3187 3189 3191 3193 3195 3197 3198 3201 3203 3205 3207 3209 3211 3213 3215 3217 3219 3222 3223 3225 3226 3227 3228 3230 3231 3232 3233 3233
3155 3158 3160 3162 3165 3167 3170 3172 3175 3177 3179 3180 3182 3183 3185 3187 3189 3191 3193 3195 3196 3198 3200 3203 3205 3207 3209 3211 3212 3215 3218 3220 3221 3222 3224 3225 3227 3228 3229 3230 3231 3232
3152 3154 3157 3160 3162 3164 3167 3169 3172 3174 3176 3178 3180 3181 3183 3184 3187 3189 3191 3193 3194 3196 3198 3200 3202 3204 3206 3208 3210 3213 3215 3218 3219 3220 3222 3223 3225 3226 3227 3228 3229 3230
3150 3153 3156 3158 3159 3161 3164 3167 3169 3171 3174 3175 3177 3179 3180 3182 3184 3186 3188 3190 3192 3194 3195 3197 3200 3202 3204 3206 3208 3210 3213 3215 3216 3217 3219 3221 3222 3224 3225 3226 3227 3228
3150 3153 3156 3158 3158 3159 3162 3165 3167 3169 3171 3172 3174 3176 3178 3179 3181 3183 3185 3187 3189 3191 3193 3194 3197 3199 3201 3203 3206 3208 3210 3212 3214 3215 3217 3219 3220 3221 3223 3224 3225 3226
3148 3150 3153 3155 3156 3158 3160 3163 3165 3167 3168 3170 3172 3174 3175 3177 3179 3181 3182 3184 3186 3188 3190 3192 3194 3197 3199 3201 3203 3205 3207 3209 3211 3213 3215 3217 3218 3219 3221 3222 3223 3224
3145 3147 3150 3152 3155 3157 3158 3160 3162 3164 3165 3167 3169 3171 3173 3174 3176 3178 3179 3181 3183 3186 3188 3189 3191 3194 3196 3198 3200 3203 3205 3207 3209 3210 3212 3214 3216 3217 3218 3219 3220 3221
3144 3146 3148 3151 3153 3155 3156 3158 3159 3161 3163 3164 3166 3168 3170 3171 3173 3174 3176 3178 3180 3182 3185 3187 3189 3191 3193 3196 3198 3200 3202 3204 3206 3208 3209 3211 3213 3215 3216 3217 3218 3219
3143 3145 3147 3149 3151 3152 3153 3155 3156 3158 3159 3161 3163 3165 3166 3168 3170 3171 3173 3175 3177 3179 3182 3184 3186 3188 3190 3193 3195 3197 3199 3201 3203 3205 3206 3208 3210 3212 3213 3214 3215 3216
3141 3143 3144 3146 3148 3149 3151 3152 3153 3155 3156 3158 3160 3162 3163 3165 3166 3168 3170 3172 3174 3176 3179 3181 3183 3185 3187 3190 3192 3194 3196 3198 3199 3201 3203 3205 3206 3208 3210 3211 3212 3213
3141 3143 3145 3146 3147 3147 3148 3149 3151 3153 3154 3156 3157 3159 3161 3163 3164 3166 3168 3170 3172 3174 3176 3178 3180 3182 3184 3187 3189 3191 3192 3194 3196 3198 3200 3202 3203 3205 3207 3208 3209 3210
3141 3143 3144 3145 3145 3146 3146 3147 3149 3150 3152 3153 3155 3157 3159 3160 3161 3163 3165 3167 3169 3171 3173 3175 3176 3179 3181 3183 3186 3188 3189 3191 3193 3195 3197 3199 3200 3201 3203 3204 3205 3206
3140 3141 3142 3142 3142 3143 3144 3145 3146 3147 3149 3150 3152 3154 3155 3157 3158 3160 3162 3164 3167 3168 3170 3172 3174 3176 3178 3181 3183 3185 3187 3189 3190 3192 3194 3196 3197 3198 3199 3201 3202 3203
3138 3139 3139 3140 3140 3141 3142 3143 3144 3145 3146 3148 3149 3151 3153 3154 3156 3158 3160 3162 3164 3166 3168 3170 3171 3174 3176 3178 3180 3182 3184 3186 3188 3189 3191 3192 3194 3195 3196 3198 3199 3201
3136 3137 3137 3138 3139 3140 3140 3141 3142 3143 3144 3145 3147 3149 3151 3152 3154 3156 3158 3160 3162 3164 3166 3167 3169 3172 3174 3176 3178 3180 3182 3184 3185 3187 3188 3189 3190 3192 3193 3194 3196 3198
3135 3135 3136 3137 3137 3138 3139 3140 3141 3141 3142 3144 3146 3147 3149 3151 3153 3155 3157 3158 3160 3162 3164 3165 3167 3169 3171 3173 3175 3177 3179 3181 3183 3184 3185 3186 3188 3189 3190 3192 3193 3195
3134 3134 3135 3135 3136 3137 3138 3138 3139 3140 3141 3143 3144 3146 3147 3149 3151 3153 3155 3156 3158 3160 3162 3164 3165 3167 3169 3171 3173 3175 3177 3179 3180 3181 3182 3183 3185 3186 3187 3189 3190 3191
3133 3134 3135 3135 3135 3136 3137 3137 3138 3139 3141 3142 3144 3145 3147 3148 3149 3151 3153 3155 3156 3158 3159 3161 3163 3165 3167 3169 3171 3173 3174 3176 3177 3178 3179 3180 3181 3183 3184 3186 3187 3188
3132 3133 3134 3134 3135 3135 3136 3137 3138 3139 3140 3142 3143 3145 3146 3147 3148 3150 3152 3153 3154 3156 3157 3159 3161 3163 3165 3166 3168 3170 3171 3172 3173 3175 3176 3177 3178 3179 3181 3182 3183 3184
3132 3133 3133 3134 3134 3135 3136 3137 3137 3138 3139 3141 3142 3144 3145 3147 3148 3149 3151 3152 3153 3155 3156 3158 3159 3161 3162 3164 3165 3167 3168 3169 3170 3171 3172 3173 3175 3176 3177 3179 3180 3181
3132 3132 3133 3134 3134 3135 3135 3136 3137 3138 3139 3140 3141 3143 3144 3145 3147 3148 3149 3151 3152 3154 3155 3157 3158 3160 3161 3162 3164 3165 3165 3166 3167 3168 3169 3170 3171 3173 3174 3175 3177 3178
3131 3132 3132 3133 3134 3134 3135 3136 3137 3138 3139 3140 3140 3141 3142 3144 3145 3146 3148 3149 3151 3152 3153 3155 3157 3158 3159 3161 3162 3162 3163 3164 3164 3165 3166 3167 3168 3170 3171 3172 3173 3175
3131 3131 3132 3132 3133 3134 3134 3135 3136 3137 3138 3139 3140 3140 3142 3143 3144 3145 3146 3148 3149 3150 3152 3153 3155 3156 3157 3158 3159 3159 3160 3160 3161 3162 3163 3164 3165 3166 3167 3169 3170 3171